Location: Fort Wayne
(41.1310°N, 85.1290°W)
Time: 19:30:02
(UTC-04:00)

Meteor 2-10 Rocket - Visible Passes

Search period start: 20 April 2014 00:00
Search period end: 30 April 2014 00:00
Orbit: 734 x 886 km, 81.2° (Epoch: 20 April)

Date Brightness Start Highest point End Pass type
(mag) Time Alt. Az. Time Alt. Az. Time Alt. Az.
20 Apr 5.5 01:38:28 26° NW 01:38:28 26° NW 01:41:23 10° N visible
20 Apr 5.7 23:33:12 16° NE 23:33:12 16° NE 23:34:40 10° NE visible
21 Apr 5.2 01:14:20 32° NNW 01:14:20 32° NNW 01:17:30 10° N visible
21 Apr 5.9 23:09:04 12° ENE 23:09:04 12° ENE 23:09:48 10° NE visible
22 Apr 4.9 00:50:12 37° N 00:50:12 37° N 00:53:32 10° N visible
23 Apr 4.7 00:26:02 41° N 00:26:02 41° N 00:29:28 10° N visible
23 Apr 6.2 02:07:10 12° WNW 02:07:10 12° WNW 02:08:42 10° NW visible
24 Apr 4.6 00:01:51 40° NNE 00:01:51 40° NNE 00:05:19 10° NNE visible
24 Apr 5.9 01:42:58 16° WNW 01:42:58 16° WNW 01:45:48 10° NNW visible
24 Apr 4.6 23:37:38 35° NE 23:37:38 35° NE 23:41:04 10° NNE visible
25 Apr 5.6 01:18:45 22° WNW 01:18:45 22° WNW 01:22:21 10° NNW visible
25 Apr 4.8 23:13:23 29° ENE 23:13:23 29° ENE 23:16:42 10° NNE visible
26 Apr 5.2 00:54:31 30° WNW 00:54:31 30° WNW 00:58:39 10° NNW visible
26 Apr 5.0 22:49:07 22° ENE 22:49:07 22° ENE 22:52:11 10° NE visible
27 Apr 4.7 00:30:14 40° WNW 00:30:14 40° WNW 00:34:49 10° N visible
27 Apr 5.3 22:24:48 17° ENE 22:24:48 17° ENE 22:27:25 10° NE visible
28 Apr 4.1 00:05:55 57° WNW 00:05:55 57° WNW 00:10:52 10° N visible
28 Apr 5.5 22:00:27 12° E 22:00:27 12° E 22:02:00 10° ENE visible
28 Apr 3.6 23:41:34 80° WNW 23:41:34 80° WNW 23:46:49 10° N visible
29 Apr 3.4 23:17:10 72° ESE 23:17:24 73° E 23:22:42 10° NNE visible
